When you browse on this site, cookies collect data to enhance your experience and personalize the content and advertising you see.
Visit our Privacy Policy to learn more. By continuing to use the site, you agree to this use of cookies and data.
  • In Belgien
  • Länderverzeichnis
  • Für 7 Tage
  • Wassertemperatur
  • Wetterkarte
  • Widgets
  • user-avatar
    Anmelden

    Stündliche Wetter Haradok

    Heute, 25 Mai, Montag

    Zeit Temperatur Niederschläge Wind Luftdruck Luftfeuchtigkeit
    00:00 +8°C° 0 mm 2 m/S 750 mmHg 85%
    01:00 +9°C° 0 mm 1 m/S 750 mmHg 86%
    02:00 +9°C° 0 mm 1 m/S 750 mmHg 89%
    03:00 +9°C° 0 mm 1 m/S 750 mmHg 89%
    04:00 +9°C° 0 mm 1 m/S 750 mmHg 89%
    05:00 +9°C° 0 mm 1 m/S 751 mmHg 88%
    06:00 +11°C° 0 mm 1 m/S 751 mmHg 81%
    07:00 +12°C° 0 mm 1 m/S 751 mmHg 74%
    08:00 +14°C° 0 mm 1 m/S 752 mmHg 70%
    09:00 +14°C° 0.2 mm 1 m/S 752 mmHg 67%
    10:00 +15°C° 0.2 mm 2 m/S 752 mmHg 64%
    11:00 +16°C° 0.2 mm 2 m/S 752 mmHg 61%
    12:00 +16°C° 0.2 mm 2 m/S 752 mmHg 59%
    13:00 +17°C° 0.2 mm 2 m/S 752 mmHg 57%
    14:00 +17°C° 0.2 mm 2 m/S 752 mmHg 56%
    15:00 +17°C° 0.1 mm 2 m/S 752 mmHg 57%
    16:00 +17°C° 0.1 mm 2 m/S 752 mmHg 59%
    17:00 +17°C° 0.1 mm 2 m/S 752 mmHg 60%
    18:00 +15°C° 0.1 mm 1 m/S 753 mmHg 66%
    19:00 +14°C° 0.1 mm 1 m/S 753 mmHg 72%
    20:00 +12°C° 0.1 mm 1 m/S 754 mmHg 78%
    21:00 +11°C° 0 mm 1 m/S 754 mmHg 80%
    22:00 +10°C° 0 mm 1 m/S 754 mmHg 83%
    23:00 +10°C° 0 mm 1 m/S 755 mmHg 86%

    Morgen, 26 Mai, Dienstag

    Zeit Temperatur Niederschläge Wind Luftdruck Luftfeuchtigkeit
    00:00 +9°C° 0 mm 1 m/S 755 mmHg 87%
    01:00 +9°C° 0 mm 1 m/S 755 mmHg 88%
    02:00 +9°C° 0 mm 1 m/S 755 mmHg 89%
    03:00 +9°C° 0 mm 1 m/S 756 mmHg 89%
    04:00 +8°C° 0 mm 2 m/S 756 mmHg 89%
    05:00 +8°C° 0 mm 2 m/S 756 mmHg 88%
    06:00 +10°C° 0 mm 2 m/S 756 mmHg 81%
    07:00 +13°C° 0 mm 2 m/S 757 mmHg 74%
    08:00 +16°C° 0 mm 2 m/S 757 mmHg 66%
    09:00 +17°C° 0 mm 2 m/S 757 mmHg 61%
    10:00 +18°C° 0 mm 2 m/S 757 mmHg 55%
    11:00 +19°C° 0 mm 3 m/S 757 mmHg 50%
    12:00 +20°C° 0.1 mm 3 m/S 757 mmHg 50%
    13:00 +20°C° 0.1 mm 3 m/S 757 mmHg 50%
    14:00 +20°C° 0.1 mm 3 m/S 756 mmHg 50%
    15:00 +20°C° 0.1 mm 3 m/S 756 mmHg 52%
    16:00 +19°C° 0.1 mm 3 m/S 756 mmHg 54%
    17:00 +19°C° 0.1 mm 3 m/S 756 mmHg 55%
    18:00 +18°C° 0 mm 2 m/S 756 mmHg 61%
    19:00 +16°C° 0 mm 2 m/S 756 mmHg 67%
    20:00 +14°C° 0 mm 2 m/S 756 mmHg 73%
    21:00 +13°C° 0 mm 2 m/S 756 mmHg 75%
    22:00 +12°C° 0 mm 2 m/S 756 mmHg 78%
    23:00 +10°C° 0 mm 2 m/S 756 mmHg 80%

    übermorgen, 27 Mai, Mittwoch

    Zeit Temperatur Niederschläge Wind Luftdruck Luftfeuchtigkeit
    00:00 +10°C° 0 mm 2 m/S 756 mmHg 80%
    01:00 +10°C° 0 mm 2 m/S 756 mmHg 80%
    02:00 +10°C° 0 mm 2 m/S 755 mmHg 80%
    03:00 +10°C° 0 mm 2 m/S 755 mmHg 78%
    04:00 +10°C° 0 mm 2 m/S 755 mmHg 76%
    05:00 +10°C° 0 mm 2 m/S 755 mmHg 75%
    06:00 +12°C° 0 mm 2 m/S 755 mmHg 71%
    07:00 +14°C° 0 mm 2 m/S 755 mmHg 67%
    08:00 +15°C° 0 mm 2 m/S 755 mmHg 63%
    09:00 +16°C° 0 mm 2 m/S 755 mmHg 57%
    10:00 +17°C° 0 mm 2 m/S 754 mmHg 52%
    11:00 +18°C° 0 mm 2 m/S 754 mmHg 46%
    12:00 +18°C° 0 mm 2 m/S 754 mmHg 47%
    13:00 +18°C° 0 mm 2 m/S 754 mmHg 48%
    14:00 +18°C° 0 mm 2 m/S 753 mmHg 49%
    15:00 +18°C° 0 mm 2 m/S 753 mmHg 51%
    16:00 +18°C° 0 mm 2 m/S 753 mmHg 54%
    17:00 +18°C° 0 mm 2 m/S 752 mmHg 56%
    18:00 +16°C° 0.1 mm 2 m/S 752 mmHg 64%
    19:00 +15°C° 0.1 mm 2 m/S 752 mmHg 71%
    20:00 +13°C° 0.1 mm 2 m/S 752 mmHg 78%
    21:00 +12°C° 0 mm 1 m/S 751 mmHg 78%
    22:00 +12°C° 0 mm 1 m/S 751 mmHg 79%
    23:00 +11°C° 0 mm 1 m/S 751 mmHg 79%

    28 Mai, Donnerstag

    Zeit Temperatur Niederschläge Wind Luftdruck Luftfeuchtigkeit
    00:00 +11°C° 0 mm 1 m/S 751 mmHg 81%
    01:00 +10°C° 0 mm 1 m/S 751 mmHg 82%
    02:00 +9°C° 0 mm 0 m/S 750 mmHg 83%
    03:00 +9°C° 0 mm 0 m/S 750 mmHg 83%
    04:00 +9°C° 0 mm 0 m/S 750 mmHg 83%
    05:00 +9°C° 0 mm 0 m/S 750 mmHg 83%
    06:00 +12°C° 0 mm 1 m/S 750 mmHg 77%
    07:00 +14°C° 0 mm 1 m/S 750 mmHg 72%
    08:00 +16°C° 0 mm 1 m/S 750 mmHg 66%
    09:00 +18°C° 0.4 mm 1 m/S 750 mmHg 62%
    10:00 +19°C° 0.4 mm 1 m/S 749 mmHg 58%
    11:00 +20°C° 0.4 mm 1 m/S 749 mmHg 54%
    12:00 +20°C° 0.2 mm 1 m/S 749 mmHg 53%
    13:00 +20°C° 0.2 mm 1 m/S 748 mmHg 52%
    14:00 +21°C° 0.2 mm 1 m/S 748 mmHg 50%
    15:00 +21°C° 0.1 mm 1 m/S 748 mmHg 52%
    16:00 +20°C° 0.1 mm 1 m/S 748 mmHg 54%
    17:00 +20°C° 0.1 mm 1 m/S 748 mmHg 56%
    18:00 +19°C° 0 mm 1 m/S 747 mmHg 61%
    19:00 +16°C° 0 mm 1 m/S 747 mmHg 67%
    20:00 +14°C° 0 mm 1 m/S 747 mmHg 73%
    21:00 +14°C° 0 mm 1 m/S 747 mmHg 75%
    22:00 +13°C° 0 mm 2 m/S 747 mmHg 77%
    23:00 +12°C° 0 mm 2 m/S 746 mmHg 79%

    29 Mai, Freitag

    Zeit Temperatur Niederschläge Wind Luftdruck Luftfeuchtigkeit
    00:00 +10°C° 0 mm 2 m/S 746 mmHg 80%
    01:00 +10°C° 0 mm 2 m/S 746 mmHg 82%
    02:00 +9°C° 0 mm 3 m/S 746 mmHg 83%
    03:00 +9°C° 0 mm 3 m/S 745 mmHg 84%
    04:00 +10°C° 0 mm 3 m/S 745 mmHg 85%
    05:00 +10°C° 0 mm 3 m/S 745 mmHg 86%
    06:00 +11°C° 0 mm 3 m/S 745 mmHg 83%
    07:00 +13°C° 0 mm 3 m/S 745 mmHg 80%
    08:00 +14°C° 0 mm 3 m/S 745 mmHg 77%
    09:00 +16°C° 0.6 mm 3 m/S 745 mmHg 78%
    10:00 +15°C° 0.6 mm 4 m/S 745 mmHg 79%
    11:00 +15°C° 0.6 mm 4 m/S 744 mmHg 80%
    12:00 +17°C° 0.3 mm 3 m/S 744 mmHg 78%
    13:00 +17°C° 0.3 mm 3 m/S 744 mmHg 77%
    14:00 +17°C° 0.3 mm 3 m/S 744 mmHg 76%
    15:00 +17°C° 0.2 mm 3 m/S 744 mmHg 78%
    16:00 +16°C° 0.2 mm 3 m/S 744 mmHg 81%
    17:00 +16°C° 0.2 mm 3 m/S 744 mmHg 84%
    18:00 +15°C° 0 mm 2 m/S 745 mmHg 88%
    19:00 +14°C° 0 mm 2 m/S 745 mmHg 91%
    20:00 +13°C° 0 mm 2 m/S 745 mmHg 95%
    21:00 +13°C° 0 mm 1 m/S 745 mmHg 95%
    22:00 +12°C° 0 mm 1 m/S 745 mmHg 96%
    23:00 +11°C° 0 mm 1 m/S 746 mmHg 97%

    30 Mai, Samstag

    Zeit Temperatur Niederschläge Wind Luftdruck Luftfeuchtigkeit
    00:00 +11°C° 0 mm 1 m/S 746 mmHg 97%
    01:00 +10°C° 0 mm 1 m/S 746 mmHg 97%
    02:00 +10°C° 0 mm 1 m/S 746 mmHg 97%
    03:00 +10°C° 0 mm 1 m/S 746 mmHg 98%
    04:00 +10°C° 0 mm 1 m/S 746 mmHg 98%
    05:00 +10°C° 0 mm 1 m/S 746 mmHg 98%
    06:00 +12°C° 0 mm 1 m/S 747 mmHg 93%
    07:00 +13°C° 0 mm 1 m/S 747 mmHg 88%
    08:00 +15°C° 0 mm 1 m/S 747 mmHg 84%
    09:00 +16°C° 0 mm 1 m/S 747 mmHg 79%
    10:00 +18°C° 0 mm 1 m/S 747 mmHg 74%
    11:00 +19°C° 0 mm 1 m/S 747 mmHg 69%
    12:00 +19°C° 0 mm 1 m/S 747 mmHg 67%
    13:00 +20°C° 0 mm 1 m/S 747 mmHg 65%
    14:00 +20°C° 0 mm 1 m/S 747 mmHg 63%
    15:00 +20°C° 0 mm 1 m/S 747 mmHg 63%
    16:00 +20°C° 0 mm 1 m/S 747 mmHg 63%
    17:00 +21°C° 0 mm 1 m/S 747 mmHg 64%
    18:00 +19°C° 0 mm 1 m/S 747 mmHg 69%
    19:00 +18°C° 0 mm 1 m/S 746 mmHg 74%
    20:00 +16°C° 0 mm 1 m/S 746 mmHg 80%
    21:00 +15°C° 0 mm 1 m/S 746 mmHg 81%
    22:00 +14°C° 0 mm 2 m/S 746 mmHg 83%
    23:00 +14°C° 0 mm 2 m/S 746 mmHg 85%
    Mehr zeigen